Regional Weather Roundup
Issued by NWS

Home | Current Version | Previous Version | Text Only | Print | Product List | Glossary Off
Versions: 1 2 3 4 5 6 7 8 9 10 11 12 13 14 15 16 17 18 19 20 21 22 23 24 25 26 27 28 29 30 31 32 33 34 35 36 37 38 39 40 41 42 43 44 45 46 47 48 49 50

000
ASUS43 KIND 220109
RWRIN

WEATHER ROUNDUP FOR INDIANA
NATIONAL WEATHER SERVICE INDIANAPOLIS IN
900 PM EDT SAT APR 21 2018

NOTE: "FAIR" INDICATES FEW OR NO CLOUDS BELOW 12,000 FEET WITH NO
SIGNIFICANT WEATHER AND/OR OBSTRUCTIONS TO VISIBILITY.

* - STATION DOES NOT REPORT WEATHER SUCH AS PRECIPITATION OR FOG.

+ - STATION NOT QUALITY CONTROLLED BY THE NATIONAL WEATHER SERVICE.
    USE DATA WITH CAUTION...ESPECIALLY DEWPOINT AND RELATIVE
    HUMIDITY OBSERVATIONS.

INZ001>003-010>013-019-020-220200-
NORTHWEST INDIANA

CITY           SKY/WX    TMP DP  RH WIND       PRES   REMARKS
GARY /AIRPORT/ CLOUDY    45  27  49 NE8       30.37S
KNOX *+        FAIR      50  30  46 E5        30.35S
LA PORTE +     FAIR      47  31  54 N3        30.36S
MICHIGAN CITY+ FAIR      45  21  39 CALM      30.37S
MONTICELLO +   MOCLDY    52  25  35 CALM      30.34R
RENSSELAER +   FAIR      50  23  34 NE5       30.34S
VALPARAISO     FAIR      48  32  53 N5        30.36R

$$

LMZ046-743>745-220200-
SOUTHERN LAKE MICHIGAN

STATION/POSITION TIME  TEMP    WIND        PRES    WAVE
                       AIR SEA DIR/SP/G            HT
                 (UTC) (F)     (DEG/KT/KT) (MB)    (FT)
BURNS HARBOR     0040   42      70/  7/  9 1028.8R
MICHIGAN CITY    0040   42      20/  7/  8   N/A

$$

INZ004-005-014>016-021>024-220200-
NORTH CENTRAL INDIANA

CITY           SKY/WX    TMP DP  RH WIND       PRES   REMARKS
GOSHEN         FAIR      51  30  44 SE5       30.36R
LOGANSPORT +   FAIR      50  30  46 E7        30.35S
PERU/GRISSOM   CLOUDY    52  23  32 E8        30.35R
ROCHESTER +    FAIR      52  28  40 CALM      30.36R
SOUTH BEND     FAIR      51  26  37 N3        30.37R
WARSAW +       FAIR      50  28  43 E3        30.36R

$$

INZ006>009-017-018-025>027-220200-
NORTHEAST INDIANA

CITY           SKY/WX    TMP DP  RH WIND       PRES   REMARKS
ANGOLA *+      CLOUDY    52  27  37 CALM      30.36S
AUBURN +       FAIR      50  28  43 CALM      30.37S
FORT WAYNE     CLOUDY    50  30  46 E5        30.37S
HUNTINGTON +   FAIR      49  27  43 E3        30.36R

$$

INZ028-029-035-036-043>045-051>053-220200-
WEST CENTRAL INDIANA

CITY           SKY/WX    TMP DP  RH WIND       PRES   REMARKS
CRAWFORDSVL +  FAIR      52  27  37 E10       30.32R
GREENCASTLE +  FAIR      52  27  37 E3        30.31R
LAFAYETTE      FAIR      53  27  36 E15       30.32S
TERRE HAUTE    FAIR      55  29  36 E8        30.30R

$$

INZ030>032-037>040-046>048-054>057-064-065-220200-
CENTRAL INDIANA

CITY           SKY/WX    TMP DP  RH WIND       PRES   REMARKS
COLUMBUS       CLOUDY    54 N/A N/A NE8       30.27F
FISHERS *+     FAIR      54  28  37 E6        30.33
FRANKFORT +    FAIR      55  29  37 E13       30.34F
GREENWOOD *+   FAIR      53  26  35 E6        30.32R
INDIANAPOLIS   CLOUDY    56  20  24 E10       30.31S
-EAGLE CREEK   FAIR      57  20  23 E12       30.31R
KOKOMO +       FAIR      50  29  44 E8        30.35S
MARION +       FAIR      51  25  36 CALM      30.36R
MT COMFORT *+  FAIR      50  32  50 E6        30.34R
SHELBYVILLE    FAIR      54  26  34 E8        30.32R
ZIONSVILLE +   FAIR      52  26  36 NE9       30.34R

$$

INZ033-034-041-042-049-050-058-059-220200-
EAST CENTRAL INDIANA

CITY           SKY/WX    TMP DP  RH WIND       PRES   REMARKS
MUNCIE         MOCLDY    52  26  36 E8        30.35R
RICHMOND +     FAIR      46  30  53 NE8       30.35R

$$

INZ060-061-067>069-081>083-085>088-220200-
SOUTHWEST INDIANA

CITY           SKY/WX    TMP DP  RH WIND       PRES   REMARKS
EVANSVILLE     FAIR      63  32  31 NE6       30.23R
HUNTINGBURG +  FAIR      62  30  29 E9        30.24R
WASHINGTON +   FAIR      57  33  39 E9        30.26R

$$

INZ062-063-066-070>080-084-089>092-220200-
SOUTH CENTRAL AND SOUTHEAST INDIANA

CITY           SKY/WX    TMP DP  RH WIND       PRES   REMARKS
BATESVILLE +   CLEAR     52  27  37 MISG      30.32R
BEDFORD +      FAIR      57  19  23 NE7       30.28
BLOOMINGTON    FAIR      56  24  29 E7        30.29R
FRENCH LICK *+ FAIR      55  19  24 NE10      30.27R
MADISON *+     FAIR      54  23  30 NE8       30.30R
NORTH VERNON + FAIR      52  27  37 NE9       30.31R
SEYMOUR +      FAIR      55  30  38 NE9       30.29R

$$





USA.gov is the U.S. government's official web portal to all federal, state and local government web resources and services.